Location: Unspecified
(0.0000°N, 0.0000°E)
Time: 02:02:13
(UTC+00:00)

GALILEO 9 (205) - Visible Passes

Search period start: 10 December 2022 00:00
Search period end: 20 December 2022 00:00
Orbit: 23205 x 23239 km, 55.5° (Epoch: 08 December)

Date Brightness Start Highest point End Pass type
(mag) Time Alt. Az. Time Alt. Az. Time Alt. Az.
10 Dec ? 12:14:06 10° SW 21:50:06 52° E 00:43:54 10° SSE visible
11 Dec ? 23:04:41 10° NNW 01:53:58 49° W 11:35:23 10° NE visible
13 Dec ? 09:58:26 10° SSW 20:16:28 27° E 22:22:19 10° SE visible
14 Dec ? 20:50:34 10° NNW 00:19:21 75° W 08:52:10 10° ENE visible
17 Dec ? 14:29:09 10° WSW 22:44:29 78° E 02:18:25 10° SSE visible
19 Dec ? 00:48:45 10° NW 02:47:09 25° W 13:09:52 10° NNE visible
